KTOL

Toledo

Airport
ICAO code
KTOL
Summary
ICAO Region
NAM
ICAO Territory
Location

Toledo, Ohio,

Coordinates
41° 35' 10" N , 83° 48' 16" W
Metar
KTOL 180052Z 13003KT 10SM CLR 19/16 A2980 RMK AO2 SLP088 T01940161

Description

Toledo Express Airport is a joint civil-military airport located 16 km west of the city of Toledo in the extreme Western portion of Lucas County, Ohio, United States. In addition to serving commercial passenger, cargo and general aviation aircraft the airport is also a base for the Ohio Air National Guard.

Climatology

Runways

Designator Length Width Surface Rops
16/34 1707 46 ASP Yes/Yes
7/25 3231 46 ASP Yes/Yes

Airport map

Aerial View

SKYbrary Partners:

Safety knowledge contributed by: